When you browse on this site, cookies collect data to enhance your experience and personalize the content and advertising you see.
Visit our Privacy Policy to learn more. By continuing to use the site, you agree to this use of cookies and data.
  • en Belgique
  • Liste des pays
  • À 7 jours
  • Température de l'eau
  • Carte satellitaire
  • Carte météo
  • Widgets météo
  • user-avatar
    Se connecter

    Météo par heure à Pustynka

    Ce jour, 22 Février, Vendredi

    Heure Température Précipitation Vent Pression Humidité
    00:00 +5°C° 1.2 mm 6 m/s 753 mmHg 91%
    01:00 +5°C° 0 mm 4 m/s 753 mmHg 92%
    02:00 +6°C° 0.5 mm 5 m/s 753 mmHg 92%
    03:00 +6°C° 0.5 mm 5 m/s 753 mmHg 92%
    04:00 +5°C° 0.5 mm 6 m/s 754 mmHg 93%
    05:00 +3°C° 0.1 mm 6 m/s 755 mmHg 89%
    06:00 +2°C° 0.1 mm 6 m/s 756 mmHg 85%
    07:00 0°C° 0 mm 5 m/s 757 mmHg 80%
    08:00 0°C° 0 mm 5 m/s 759 mmHg 75%
    09:00 -1°C° 0 mm 5 m/s 760 mmHg 70%
    10:00 -2°C° 0 mm 6 m/s 761 mmHg 65%
    11:00 -2°C° 0 mm 6 m/s 762 mmHg 59%
    12:00 -2°C° 0 mm 6 m/s 763 mmHg 52%
    13:00 -1°C° 0 mm 6 m/s 763 mmHg 46%
    14:00 -1°C° 0 mm 5 m/s 764 mmHg 45%
    15:00 -1°C° 0 mm 5 m/s 764 mmHg 44%
    16:00 -1°C° 0 mm 5 m/s 765 mmHg 43%
    17:00 -2°C° 0 mm 4 m/s 766 mmHg 47%
    18:00 -3°C° 0 mm 4 m/s 766 mmHg 51%
    19:00 -4°C° 0 mm 3 m/s 767 mmHg 54%
    20:00 -4°C° 0 mm 3 m/s 768 mmHg 53%
    21:00 -4°C° 0 mm 3 m/s 768 mmHg 53%
    22:00 -3°C° 0 mm 2 m/s 769 mmHg 52%
    23:00 -3°C° 0 mm 2 m/s 769 mmHg 50%

    Demain, 23 Février, Samedi

    Heure Température Précipitation Vent Pression Humidité
    00:00 -3°C° 0 mm 2 m/s 769 mmHg 48%
    01:00 -3°C° 0 mm 2 m/s 770 mmHg 46%
    02:00 -3°C° 0 mm 2 m/s 770 mmHg 45%
    03:00 -1°C° 0 mm 1 m/s 770 mmHg 44%
    04:00 -2°C° 0 mm 1 m/s 770 mmHg 43%
    05:00 -2°C° 0 mm 1 m/s 770 mmHg 43%
    06:00 -2°C° 0 mm 1 m/s 770 mmHg 42%
    07:00 -2°C° 0 mm 1 m/s 770 mmHg 42%
    08:00 -1°C° 0 mm 1 m/s 770 mmHg 38%
    09:00 -3°C° 0 mm 2 m/s 770 mmHg 34%
    10:00 -2°C° 0 mm 2 m/s 770 mmHg 30%
    11:00 -1°C° 0 mm 2 m/s 770 mmHg 28%
    12:00 +1°C° 0 mm 2 m/s 770 mmHg 26%
    13:00 +1°C° 0 mm 2 m/s 769 mmHg 24%
    14:00 +2°C° 0 mm 2 m/s 769 mmHg 25%
    15:00 +2°C° 0 mm 2 m/s 769 mmHg 26%
    16:00 +3°C° 0 mm 1 m/s 768 mmHg 27%
    17:00 +2°C° 0 mm 1 m/s 768 mmHg 30%
    18:00 -1°C° 0 mm 2 m/s 768 mmHg 33%
    19:00 -2°C° 0 mm 2 m/s 768 mmHg 37%
    20:00 -2°C° 0 mm 2 m/s 768 mmHg 37%
    21:00 -2°C° 0 mm 2 m/s 768 mmHg 38%
    22:00 -3°C° 0 mm 2 m/s 768 mmHg 38%
    23:00 -3°C° 0 mm 2 m/s 768 mmHg 38%

    Après-demain, 24 Février, Dimanche

    Heure Température Précipitation Vent Pression Humidité
    00:00 0°C° 0 mm 1 m/s 767 mmHg 37%
    01:00 0°C° 0 mm 1 m/s 767 mmHg 36%
    02:00 0°C° 0 mm 1 m/s 767 mmHg 34%
    03:00 +1°C° 0 mm 1 m/s 767 mmHg 33%
    04:00 0°C° 0 mm 0 m/s 767 mmHg 31%
    05:00 0°C° 0 mm 0 m/s 767 mmHg 31%
    06:00 +1°C° 0 mm 1 m/s 767 mmHg 31%
    07:00 +1°C° 0 mm 1 m/s 767 mmHg 31%
    08:00 +2°C° 0 mm 1 m/s 767 mmHg 30%
    09:00 +4°C° 0 mm 1 m/s 767 mmHg 28%
    10:00 +5°C° 0 mm 1 m/s 767 mmHg 27%
    11:00 +5°C° 0 mm 2 m/s 767 mmHg 27%
    12:00 +6°C° 0 mm 2 m/s 766 mmHg 27%
    13:00 +7°C° 0 mm 2 m/s 766 mmHg 27%
    14:00 +7°C° 0 mm 2 m/s 766 mmHg 32%
    15:00 +6°C° 0 mm 2 m/s 766 mmHg 38%
    16:00 +6°C° 0 mm 2 m/s 766 mmHg 43%
    17:00 +5°C° 0 mm 2 m/s 766 mmHg 45%
    18:00 +4°C° 0 mm 2 m/s 766 mmHg 48%
    19:00 +2°C° 0 mm 2 m/s 766 mmHg 50%
    20:00 +2°C° 0 mm 2 m/s 766 mmHg 51%
    21:00 +2°C° 0 mm 2 m/s 766 mmHg 53%
    22:00 +2°C° 0 mm 2 m/s 767 mmHg 54%
    23:00 +1°C° 0 mm 2 m/s 767 mmHg 55%

    25 Février, Lundi

    Heure Température Précipitation Vent Pression Humidité
    00:00 +1°C° 0 mm 2 m/s 767 mmHg 56%
    01:00 +1°C° 0 mm 2 m/s 767 mmHg 57%
    02:00 0°C° 0 mm 3 m/s 766 mmHg 58%
    03:00 0°C° 0 mm 3 m/s 766 mmHg 59%
    04:00 0°C° 0 mm 3 m/s 766 mmHg 60%
    05:00 0°C° 0 mm 3 m/s 766 mmHg 61%
    06:00 0°C° 0 mm 3 m/s 766 mmHg 63%
    07:00 -1°C° 0 mm 3 m/s 766 mmHg 64%
    08:00 +1°C° 0 mm 3 m/s 767 mmHg 62%
    09:00 +2°C° 0 mm 3 m/s 767 mmHg 59%
    10:00 +4°C° 0 mm 3 m/s 767 mmHg 57%
    11:00 +5°C° 0 mm 3 m/s 767 mmHg 56%
    12:00 +7°C° 0 mm 3 m/s 766 mmHg 55%
    13:00 +8°C° 0 mm 3 m/s 766 mmHg 54%
    14:00 +9°C° 0 mm 2 m/s 766 mmHg 55%
    15:00 +9°C° 0 mm 2 m/s 766 mmHg 57%
    16:00 +9°C° 0 mm 2 m/s 765 mmHg 59%
    17:00 +8°C° 0 mm 2 m/s 765 mmHg 62%
    18:00 +6°C° 0 mm 2 m/s 765 mmHg 66%
    19:00 +5°C° 0 mm 2 m/s 765 mmHg 69%
    20:00 +5°C° 0 mm 2 m/s 765 mmHg 70%
    21:00 +4°C° 0 mm 2 m/s 765 mmHg 70%
    22:00 +3°C° 0 mm 3 m/s 765 mmHg 70%
    23:00 +3°C° 0 mm 3 m/s 764 mmHg 70%

    26 Février, Mardi

    Heure Température Précipitation Vent Pression Humidité
    00:00 +3°C° 0 mm 3 m/s 764 mmHg 70%
    01:00 +2°C° 0 mm 3 m/s 764 mmHg 70%
    02:00 +2°C° 0 mm 3 m/s 763 mmHg 71%
    03:00 +1°C° 0 mm 4 m/s 763 mmHg 72%
    04:00 +1°C° 0 mm 4 m/s 762 mmHg 73%
    05:00 +1°C° 0 mm 4 m/s 762 mmHg 74%
    06:00 +3°C° 0 mm 4 m/s 762 mmHg 75%
    07:00 +3°C° 0 mm 4 m/s 762 mmHg 76%
    08:00 +3°C° 0 mm 5 m/s 761 mmHg 71%
    09:00 +4°C° 0 mm 6 m/s 761 mmHg 66%
    10:00 +6°C° 0 mm 7 m/s 761 mmHg 61%
    11:00 +8°C° 0 mm 7 m/s 761 mmHg 57%
    12:00 +9°C° 0 mm 7 m/s 760 mmHg 52%
    13:00 +10°C° 0 mm 7 m/s 760 mmHg 48%
    14:00 +10°C° 0 mm 6 m/s 760 mmHg 52%
    15:00 +9°C° 0 mm 5 m/s 760 mmHg 56%
    16:00 +10°C° 0 mm 4 m/s 759 mmHg 60%
    17:00 +8°C° 0 mm 4 m/s 760 mmHg 64%
    18:00 +8°C° 0 mm 3 m/s 760 mmHg 68%
    19:00 +7°C° 0 mm 3 m/s 760 mmHg 73%
    20:00 +5°C° 0 mm 3 m/s 760 mmHg 78%
    21:00 +5°C° 0 mm 3 m/s 760 mmHg 82%
    22:00 +4°C° 0 mm 3 m/s 760 mmHg 87%
    23:00 +3°C° 0 mm 3 m/s 760 mmHg 89%

    27 Février, Mercredi

    Heure Température Précipitation Vent Pression Humidité
    00:00 +4°C° 0 mm 2 m/s 760 mmHg 91%
    01:00 +4°C° 0 mm 2 m/s 760 mmHg 92%
    02:00 +3°C° 0 mm 2 m/s 760 mmHg 93%
    03:00 +3°C° 0 mm 2 m/s 760 mmHg 94%
    04:00 +2°C° 0 mm 2 m/s 760 mmHg 94%
    05:00 +2°C° 0 mm 2 m/s 760 mmHg 94%
    06:00 +2°C° 0 mm 2 m/s 760 mmHg 94%
    07:00 +3°C° 0 mm 1 m/s 760 mmHg 94%
    08:00 +4°C° 0 mm 1 m/s 760 mmHg 88%
    09:00 +6°C° 0 mm 1 m/s 759 mmHg 82%
    10:00 +7°C° 0 mm 1 m/s 759 mmHg 76%
    11:00 +9°C° 0 mm 1 m/s 759 mmHg 68%
    12:00 +10°C° 0 mm 1 m/s 758 mmHg 60%
    13:00 +12°C° 0 mm 1 m/s 758 mmHg 52%
    14:00 +12°C° 0 mm 1 m/s 757 mmHg 52%
    15:00 +12°C° 0 mm 1 m/s 757 mmHg 53%
    16:00 +13°C° 0 mm 1 m/s 756 mmHg 53%
    17:00 +11°C° 0 mm 1 m/s 756 mmHg 60%
    18:00 +10°C° 0 mm 1 m/s 755 mmHg 67%
    19:00 +9°C° 0 mm 1 m/s 755 mmHg 73%
    20:00 +8°C° 0 mm 2 m/s 754 mmHg 77%
    21:00 +7°C° 0 mm 2 m/s 754 mmHg 80%
    22:00 +7°C° 0 mm 2 m/s 754 mmHg 84%
    23:00 +6°C° 0 mm 2 m/s 753 mmHg 83%
    Voir plus